Wind_Speed
4 3 3 3 3 3 3 3 3 4 5 6 6 6 7 7 7 7 7 8 8 8 8 7 7 7 7 7 7 8 8 9 9 9 9 9 10 11 13 14 15 15 16 18 18 17 18 19 20 21 21 20 18 18 16 14 13 12 10 11 11 10 11 10 7 6 5 5 7 10 11 13 14 14 14 14 16 18 18 17 18 20 19 18 21
5 4 3 3 3 3 3 2 3 4 5 5 6 6 6 6 7 7 6 7 8 8 8 8 7 7 7 7 8 8 8 9 9 9 9 9 9 10 12 13 15 15 15 17 17 17 17 18 19 20 20 21 19 18 18 16 15 14 12 11 12 12 11 11 9 8 7 5 6 8 9 12 13 12 12 13 14 15 16 16 16 17 17 17 18
6 5 4 3 3 3 2 2 3 3 4 5 6 6 6 6 6 7 6 7 8 8 8 8 7 7 8 8 8 9 9 9 9 9 9 9 9 10 11 12 14 15 15 15 16 17 17 17 18 19 20 20 20 20 19 18 16 15 14 12 11 11 10 10 10 9 9 8 8 8 9 10 11 9 9 11 12 13 13 13 14 14 15 16 15
6 6 5 4 3 3 3 2 2 3 3 5 5 5 5 5 6 6 6 7 7 8 8 8 8 8 8 9 9 9 10 10 9 10 10 10 10 10 10 11 12 14 14 14 15 16 17 17 17 18 19 20 20 20 20 19 17 16 15 12 11 11 10 9 9 9 10 9 9 9 8 8 8 6 6 7 8 10 11 12 13 13 14 13 13
6 6 5 4 3 3 3 2 2 3 3 4 5 5 4 4 5 5 6 6 7 8 8 8 8 8 9 9 9 10 10 10 10 10 10 10 10 10 10 11 11 12 13 13 13 14 15 16 17 18 19 19 19 20 20 19 18 17 16 14 12 11 11 10 9 8 9 8 9 10 8 7 7 6 6 7 7 8 10 12 13 13 13 13 12
7 6 5 5 4 3 3 3 2 2 2 3 4 4 4 4 4 5 5 6 6 7 8 8 8 9 9 9 10 10 11 11 10 10 10 10 10 10 10 11 11 11 12 12 12 13 14 15 17 18 18 18 18 19 20 19 19 19 18 15 12 11 10 10 9 8 9 8 9 10 10 9 9 9 8 8 8 9 9 11 12 11 12 13 12
8 7 6 5 4 4 3 3 3 2 2 2 3 4 3 3 4 4 4 5 6 7 7 8 8 8 9 9 10 11 12 12 12 11 10 10 10 10 10 11 11 11 11 11 10 11 13 14 16 17 17 17 17 18 19 19 19 20 19 16 13 11 9 9 10 9 9 9 9 9 9 9 9 10 10 8 8 9 9 9 10 10 12 13 13
9 7 6 5 5 4 4 3 3 2 2 2 3 3 3 3 3 3 4 4 5 6 7 7 7 7 8 9 10 11 12 14 16 15 12 10 10 11 10 11 11 11 11 11 10 11 12 13 14 15 15 17 17 18 19 19 19 19 19 18 14 11 9 9 10 9 9 10 10 10 9 10 10 10 10 10 10 9 8 8 8 9 11 12 12
9 8 7 6 5 5 4 4 3 3 2 2 2 3 3 3 3 3 3 3 4 5 6 6 6 7 8 8 9 11 12 16 19 19 15 11 10 11 11 11 11 11 11 11 10 11 11 11 13 14 14 15 17 18 18 19 19 18 18 19 16 12 10 10 10 10 9 10 11 11 10 10 11 10 10 11 10 8 9 10 7 7 9 11 11
10 9 8 7 6 6 5 4 4 3 2 2 2 2 2 2 3 3 3 3 3 4 5 6 6 7 7 8 9 11 13 16 18 19 17 13 10 10 11 11 11 11 11 11 11 11 11 11 12 14 15 13 15 18 18 17 18 19 19 20 18 13 11 12 12 11 11 10 11 11 10 10 11 10 9 10 10 10 10 11 7 5 7 8 9
11 10 9 8 7 6 5 5 4 4 3 2 2 2 2 2 3 3 3 3 3 3 4 5 6 7 7 8 8 10 13 16 17 18 18 15 11 10 10 10 11 11 11 11 11 11 11 11 11 13 16 15 13 15 16 16 17 18 18 20 22 18 13 12 13 14 13 12 13 13 12 11 11 11 11 10 12 14 11 9 7 7 7 7 7
11 10 9 9 8 7 6 5 5 4 3 3 2 2 2 2 3 3 3 3 3 3 4 4 5 6 6 7 8 9 11 14 16 17 17 16 13 11 10 10 11 11 11 11 12 12 11 11 11 12 15 17 15 13 13 14 15 15 14 16 20 22 19 16 15 15 15 14 14 15 14 13 12 12 14 13 12 14 12 8 8 8 8 8 7
11 11 10 10 9 8 7 6 6 5 4 4 3 3 2 3 3 3 3 3 3 3 4 4 5 5 5 6 7 8 10 13 15 16 16 16 15 12 10 11 11 11 12 12 12 13 12 12 12 12 14 17 17 15 12 11 11 12 11 11 15 19 19 18 17 16 16 15 15 15 14 14 13 14 15 15 11 11 10 7 7 6 7 8 8
12 11 11 10 10 9 7 7 7 6 5 4 4 3 3 3 3 3 3 3 3 3 4 4 5 5 5 5 6 8 11 12 14 15 15 14 14 12 10 10 11 11 12 12 13 14 13 12 12 13 14 17 19 18 15 11 9 10 9 9 12 15 16 17 16 15 16 16 15 14 13 13 13 14 15 14 12 9 7 5 5 5 6 6 6
13 12 12 11 10 10 8 8 7 7 6 5 4 4 4 4 3 3 3 3 3 3 3 4 4 5 5 5 6 8 11 12 13 14 13 12 12 10 8 9 10 10 11 12 13 15 15 13 13 13 14 17 20 19 14 11 10 9 8 8 9 11 13 16 17 15 15 14 14 13 12 12 13 14 15 14 12 9 6 4 3 3 3 5 5
13 13 12 12 11 11 10 9 8 8 7 6 5 5 4 4 4 3 3 3 3 3 3 3 4 4 5 5 5 7 10 12 13 14 12 10 10 8 7 8 9 9 10 11 12 16 18 16 13 13 14 18 21 18 14 11 9 8 8 8 8 8 10 13 14 14 14 14 15 14 14 16 18 18 17 15 13 10 6 2 2 4 4 4 5
15 14 14 13 12 12 11 10 9 8 8 7 6 5 5 4 4 3 3 3 2 3 3 3 4 4 5 5 5 6 9 12 13 14 12 10 9 8 7 8 8 8 9 9 9 13 19 20 17 14 16 19 21 19 15 12 10 9 8 7 7 8 10 10 11 12 13 13 14 15 17 18 19 19 19 17 14 12 9 6 6 8 6 3 3
16 16 15 14 14 13 12 11 10 9 8 7 6 5 5 5 4 4 3 3 2 2 2 3 4 4 5 6 6 6 8 11 13 13 12 10 9 8 6 7 7 7 7 8 7 8 14 19 20 19 18 20 21 20 17 14 10 10 9 7 8 10 10 10 10 10 11 11 11 12 14 15 16 17 20 20 18 15 13 11 11 10 7 5 4
16 16 16 15 14 14 13 12 11 10 9 8 7 6 5 5 5 4 4 3 2 2 2 2 3 4 4 5 6 6 7 10 13 13 12 10 9 8 7 6 7 7 6 7 7 7 8 14 19 20 19 19 20 19 18 16 12 11 11 9 9 11 11 11 11 10 9 9 10 10 11 13 14 15 18 20 20 19 16 13 12 11 10 9 6
16 16 16 15 15 14 14 13 12 11 10 9 8 7 5 5 5 5 4 3 3 2 2 2 3 3 3 4 5 6 7 9 12 13 13 11 10 9 8 7 7 7 6 6 7 7 8 10 16 19 19 19 19 19 18 17 14 12 12 10 10 12 11 11 12 11 9 8 10 10 10 12 14 15 16 17 18 18 17 15 13 11 10 10 9
16 16 16 16 15 15 14 14 13 12 10 10 9 7 6 5 5 5 4 4 3 3 2 2 2 3 3 3 5 6 7 8 11 12 13 13 12 11 9 8 7 7 7 7 7 8 9 9 13 18 18 17 18 17 17 17 15 13 13 12 11 11 11 10 10 10 8 8 10 11 10 12 13 15 16 17 16 15 16 17 15 12 10 9 9
17 17 17 16 16 15 15 15 14 12 11 11 10 8 7 6 5 4 4 4 4 3 2 2 2 3 3 3 4 5 6 8 10 11 12 13 13 13 11 10 8 7 7 7 8 9 9 9 12 15 16 15 17 17 16 16 16 14 13 11 10 10 10 9 9 9 9 8 10 11 12 12 14 15 15 16 15 13 14 16 15 13 11 9 8
18 18 17 17 16 16 15 16 15 13 13 12 10 9 8 6 5 4 4 5 5 4 3 2 2 3 3 3 3 3 4 8 11 11 12 12 13 13 13 11 10 9 8 8 8 8 8 9 11 13 14 13 15 17 17 17 16 14 12 12 12 12 10 8 8 9 8 8 10 11 13 13 14 14 15 15 14 12 12 13 13 13 13 11 9
19 18 18 17 17 16 16 16 15 14 14 13 11 10 9 7 6 5 4 5 5 4 4 3 3 3 3 3 3 3 3 4 8 11 12 12 13 13 13 13 12 10 8 8 8 8 8 9 10 12 11 12 14 16 16 17 18 16 15 16 15 13 10 9 9 8 8 9 10 11 12 13 14 14 14 15 14 12 11 11 10 12 14 13 10
20 19 18 18 17 17 16 16 16 14 15 14 12 11 10 8 6 5 5 4 4 4 4 4 3 3 3 3 3 3 3 3 5 8 10 12 13 14 14 14 14 13 10 9 9 9 9 10 11 11 12 12 13 12 12 16 18 18 18 17 14 12 12 11 10 9 9 9 10 10 11 12 13 12 12 13 13 12 11 11 11 12 14 12 12
21 20 19 18 18 17 17 16 16 15 15 14 12 11 11 9 7 6 5 4 4 4 4 4 4 4 4 3 3 3 2 2 3 5 7 8 10 12 13 13 14 14 12 11 12 12 12 11 11 11 12 13 12 11 11 14 16 16 16 16 14 13 13 12 11 10 10 10 10 10 10 11 11 11 11 13 14 12 11 12 13 13 13 12 12
22 21 20 19 18 18 17 17 16 16 15 14 13 12 11 10 8 7 5 5 5 4 5 4 4 4 4 4 3 3 2 3 3 4 5 5 5 8 9 10 11 11 9 8 9 9 9 11 11 11 11 12 12 11 10 12 13 13 13 13 13 13 13 12 11 11 10 10 9 9 9 10 10 11 12 13 14 14 12 11 12 13 12 11 11
22 22 21 20 19 19 18 17 17 16 16 15 13 12 11 10 9 7 5 4 4 4 5 5 4 4 5 4 3 3 3 4 5 5 5 5 4 5 6 6 7 7 5 5 5 5 6 8 9 10 10 10 10 10 10 11 12 13 14 13 12 12 12 11 12 12 11 11 10 9 8 9 9 10 11 12 14 14 13 11 11 12 12 11 11
23 22 21 20 20 19 18 18 17 16 16 16 13 12 12 11 9 7 6 5 5 5 4 4 4 4 4 3 3 3 5 5 5 6 6 7 7 7 7 6 6 6 7 8 6 5 6 8 9 10 10 10 11 11 11 11 11 12 14 14 13 13 13 12 12 13 13 12 10 10 9 8 9 9 10 12 13 13 13 13 12 11 10 11 12
22 22 21 21 21 20 18 18 17 16 16 16 14 14 15 13 10 9 8 7 7 6 6 6 6 5 5 4 3 5 7 7 6 7 8 8 9 10 10 10 8 8 10 10 8 6 7 9 10 10 11 11 12 12 12 12 12 12 13 13 14 14 14 13 13 12 12 12 11 10 10 9 9 9 10 11 12 12 12 13 13 12 10 10 11
23 22 22 21 22 21 19 19 18 17 17 17 15 14 15 14 13 11 9 8 6 6 7 8 8 8 8 7 6 8 9 9 8 9 9 9 10 11 11 11 11 11 12 11 9 8 9 10 10 11 11 11 12 12 12 12 12 12 12 12 13 13 13 13 13 13 12 12 11 11 10 10 9 9 9 10 11 12 12 12 13 13 12 11 11
25 23 22 22 23 22 20 19 19 18 17 17 16 15 15 14 13 12 11 9 7 6 7 8 9 9 9 9 9 9 9 9 9 9 10 11 11 12 12 11 12 13 13 11 9 9 10 10 11 11 11 11 11 11 12 12 12 12 12 12 12 13 13 13 13 12 12 12 12 11 11 10 10 9 9 9 10 11 12 12 12 13 13 12 12
26 24 23 23 24 23 21 20 20 19 18 18 17 17 16 15 13 12 11 10 8 7 8 10 9 9 9 9 9 9 9 10 10 10 10 12 12 12 12 12 12 13 12 10 9 10 11 10 11 11 11 11 11 11 12 12 12 12 12 12 12 12 12 12 11 11 12 12 12 12 11 11 10 9 9 9 10 11 11 12 12 12 13 12 12
27 27 26 26 26 25 22 21 21 20 19 19 18 17 16 15 14 14 13 12 10 9 10 11 10 10 10 10 10 10 9 10 10 10 11 12 13 13 12 11 12 13 12 10 10 10 10 10 10 10 10 10 10 11 12 12 12 12 12 12 12 12 12 12 11 11 11 11 11 12 12 11 11 10 9 9 10 10 11 12 12 12 12 12 12
25 27 30 30 27 25 24 22 22 21 20 19 19 17 16 15 15 15 15 14 13 12 12 12 12 12 12 11 10 10 9 9 9 10 11 12 12 10 7 5 7 10 11 11 10 10 9 9 9 9 9 9 10 10 11 11 12 12 12 12 12 12 13 13 12 12 11 11 11 12 12 11 11 10 9 9 10 10 11 12 12 12 12 12 12
24 26 30 30 26 24 24 23 22 22 21 20 19 18 17 16 15 15 15 14 14 14 14 13 13 14 13 11 11 10 9 9 8 8 9 11 11 8 4 4 7 8 9 9 10 9 9 9 9 8 9 9 9 9 10 10 11 11 12 12 12 13 13 13 13 12 11 11 11 11 11 11 12 11 9 9 10 11 11 11 12 13 13 12 12
25 25 29 29 25 24 24 23 23 23 22 21 20 19 17 17 16 15 15 15 15 15 15 15 16 15 13 12 11 11 10 9 8 8 9 11 10 7 4 5 7 8 8 8 8 8 8 8 8 8 8 8 9 9 10 10 10 10 11 11 12 13 13 13 13 13 12 11 11 12 11 11 11 11 10 10 10 10 11 11 10 12 14 13 11
26 27 30 30 26 24 24 23 24 25 23 21 20 20 18 18 17 16 15 16 16 16 15 16 17 16 14 14 14 12 11 9 8 8 8 8 7 6 5 6 7 8 8 8 7 7 8 7 7 8 8 8 8 9 9 10 10 10 10 11 11 12 13 12 13 13 13 12 12 12 11 11 11 11 11 10 10 10 11 11 10 11 13 13 13
25 28 34 35 30 26 24 24 25 26 24 22 21 20 19 18 18 17 16 17 17 16 16 17 17 16 16 17 16 14 12 10 8 8 7 6 5 5 5 6 7 8 8 7 7 7 7 7 7 7 7 8 8 8 9 9 9 10 10 10 11 12 13 13 13 14 14 13 12 12 12 11 11 11 10 11 10 10 10 11 10 11 12 13 13
25 27 34 37 32 26 24 24 25 25 24 23 22 21 20 20 19 18 17 17 17 16 16 17 17 16 17 18 19 17 13 11 9 9 8 7 7 6 6 6 7 8 8 7 7 6 6 6 6 6 7 7 8 8 8 9 9 9 10 10 11 11 12 13 13 13 13 13 13 12 12 12 12 11 11 11 11 10 9 9 10 10 12 12 13
25 27 34 38 33 26 24 24 25 25 24 23 23 22 21 20 19 19 18 18 17 16 16 17 16 16 18 22 22 18 13 10 10 10 9 8 8 7 6 7 7 8 8 7 7 6 6 6 6 6 6 7 7 7 8 8 9 9 10 10 11 11 11 12 12 13 13 13 13 12 12 12 12 12 11 11 10 9 9 9 9 9 10 11 12
27 31 38 40 35 28 25 25 25 25 24 24 23 22 21 20 20 20 19 18 18 17 17 16 15 16 19 24 23 17 10 8 10 10 9 9 9 8 7 8 8 8 8 8 7 7 6 6 6 6 6 6 6 7 7 8 8 9 9 10 10 11 11 12 12 12 12 13 13 12 12 12 11 11 11 11 10 9 10 10 9 9 10 10 11
29 33 37 39 35 29 25 26 26 25 25 24 23 22 21 20 20 20 19 17 17 18 17 16 16 18 21 23 21 15 10 9 11 10 9 10 9 8 8 8 8 9 9 8 7 7 6 6 6 6 6 6 6 7 7 7 7 8 9 9 10 10 11 11 12 12 12 12 12 12 12 11 11 11 11 11 11 10 11 11 10 9 9 10 10
29 32 34 36 36 31 28 26 26 25 25 26 25 23 23 22 21 21 19 16 16 17 17 16 17 19 22 23 20 15 10 11 12 11 10 10 10 9 9 9 10 10 10 9 8 8 7 7 7 7 7 7 7 7 8 7 7 7 8 8 9 10 10 11 11 12 12 11 11 11 12 11 11 11 11 12 11 11 12 12 12 11 11 10 10
29 30 32 34 34 31 28 26 25 24 25 26 25 24 24 27 28 26 22 18 16 17 17 17 18 19 21 21 19 15 12 12 12 12 11 11 11 10 10 10 11 11 10 9 9 9 8 7 7 7 7 6 7 8 8 8 8 8 8 8 8 9 9 10 10 11 11 11 11 11 11 11 11 11 11 11 11 11 12 12 12 12 12 12 12
28 29 31 33 32 31 31 28 25 24 25 26 25 24 25 27 28 25 21 18 18 18 18 19 19 19 20 20 19 16 14 13 13 12 12 12 11 11 11 12 11 11 11 10 10 9 8 8 7 7 6 6 6 7 7 7 8 8 7 8 8 7 7 8 9 10 11 12 11 11 10 10 11 12 12 11 11 11 12 12 12 12 12 12 12
28 28 31 31 31 33 34 31 27 27 26 24 24 25 27 29 29 26 21 19 19 19 20 20 19 19 20 20 19 17 16 15 14 13 12 12 12 12 12 13 12 12 12 11 11 10 9 9 8 7 7 7 6 6 6 6 6 7 7 7 7 6 8 8 8 8 10 11 12 11 11 10 10 11 11 11 11 11 12 12 12 12 11 11 11
27 29 30 29 29 32 34 31 29 29 26 23 24 29 33 34 32 27 22 20 20 21 21 20 20 20 20 20 19 18 17 16 15 14 13 13 13 13 13 13 13 13 13 12 11 10 10 9 9 8 8 7 7 7 6 6 6 6 7 7 8 10 11 11 9 8 9 11 11 11 11 11 11 12 12 11 11 11 11 12 12 11 11 11 11
28 31 32 30 28 30 33 32 29 28 26 24 27 33 36 34 29 24 21 20 21 22 22 21 20 20 20 20 19 19 18 17 16 15 14 14 14 14 14 14 14 13 13 13 12 11 11 10 9 8 8 7 7 7 7 6 6 6 6 7 9 11 12 12 12 13 12 11 10 11 11 11 12 12 13 12 12 12 12 12 12 12 12 12 11
28 32 34 32 31 33 37 36 30 26 26 27 28 31 34 32 27 22 21 21 21 22 22 21 21 20 20 20 20 19 19 18 17 16 15 15 15 14 15 15 14 14 13 13 13 12 12 11 10 9 8 8 7 7 7 7 6 5 6 8 10 11 12 13 14 15 14 11 11 12 13 12 12 12 13 13 14 14 14 13 13 12 13 13 13
26 28 33 34 33 34 37 36 30 26 27 29 31 33 35 32 27 23 22 22 22 23 23 22 21 21 20 20 20 20 19 19 18 17 16 16 16 15 16 15 15 14 14 14 13 13 12 12 11 10 9 9 8 8 7 7 7 7 8 9 10 12 13 13 14 16 16 13 11 12 13 14 14 14 13 13 13 15 15 15 14 14 14 14 14
Wind_Direction
137 122 104 87 70 68 74 65 50 43 34 32 36 38 36 34 38 38 28 23 21 17 15 12 9 8 9 12 14 15 15 15 16 14 17 20 19 20 21 22 24 23 22 25 26 25 25 25 23 23 23 22 20 21 21 20 20 19 17 18 22 14 4 17 57 88 90 79 63 51 43 43 45 42 42 46 48 50 51 50 49 50 51 48 45
142 132 120 99 79 78 85 76 58 47 38 36 36 38 38 32 34 40 32 24 22 21 19 17 16 16 19 20 20 20 20 20 18 16 14 13 14 15 15 16 19 20 20 21 22 24 26 25 24 23 22 23 22 21 19 18 18 18 16 15 19 21 12 4 20 58 74 74 73 67 53 51 51 43 39 42 44 46 49 49 49 51 54 52 48
141 136 129 109 95 95 93 87 71 53 42 40 35 35 37 32 33 37 31 26 27 26 24 22 23 25 27 28 27 25 24 23 20 19 16 11 9 11 10 11 12 14 17 17 16 20 24 25 25 24 22 23 23 23 20 17 17 16 15 15 14 16 18 15 19 43 59 59 61 65 62 56 50 43 44 47 42 42 48 52 53 54 54 54 53
143 139 133 119 107 103 98 97 82 59 48 42 35 32 34 32 33 34 31 31 32 29 28 26 26 29 30 30 30 27 25 23 21 20 18 14 8 6 6 8 8 7 11 14 14 17 21 23 23 23 23 22 22 22 20 17 16 14 13 15 15 15 17 25 34 46 56 59 58 59 63 60 51 44 55 63 56 51 55 58 58 57 55 57 58
149 143 138 128 117 109 104 105 93 70 54 44 35 31 33 33 35 35 35 36 35 32 30 28 27 29 30 29 29 28 25 22 22 21 20 18 14 10 7 6 6 6 7 11 13 16 20 21 22 22 22 20 19 18 18 17 15 12 11 12 14 15 17 24 36 49 57 61 61 58 59 60 57 52 50 56 62 62 62 64 62 59 59 62 63
153 147 143 134 123 114 106 105 101 83 59 42 33 32 33 34 37 37 36 34 34 34 32 30 28 28 30 32 31 31 27 23 21 20 22 23 19 15 13 11 10 9 10 11 13 17 20 21 21 21 20 19 16 13 13 16 15 11 8 8 10 13 18 24 31 43 52 56 58 56 53 49 47 46 41 40 48 53 57 67 69 64 62 62 64
157 153 149 139 126 117 109 104 102 91 66 42 31 33 33 33 39 38 34 32 32 33 32 30 28 28 31 34 35 35 31 27 23 18 18 24 25 21 18 17 18 17 16 16 16 21 24 23 22 20 18 18 16 11 10 13 15 14 10 6 5 9 19 27 30 33 38 43 47 49 50 48 42 41 41 40 50 52 46 55 65 64 64 60 57
161 158 153 143 131 123 112 105 103 97 78 49 34 33 34 36 42 38 33 32 31 31 30 27 28 31 35 37 39 38 34 31 30 25 18 19 26 27 21 20 23 24 22 21 21 24 27 28 26 21 19 18 16 15 15 15 16 15 12 10 7 9 20 29 32 35 37 37 35 33 38 44 38 34 32 29 37 43 36 41 55 59 63 62 55
163 161 158 149 141 133 121 110 109 106 94 65 44 37 36 38 44 45 39 34 31 29 27 25 26 32 38 41 42 40 37 35 35 32 25 20 24 29 28 25 26 28 26 24 25 26 27 29 26 21 23 21 15 14 19 22 25 21 15 14 13 12 21 30 32 35 38 37 32 25 27 35 33 29 25 21 23 28 33 39 44 53 61 64 60
165 165 161 155 149 141 129 119 116 117 110 84 62 49 44 45 48 50 46 39 33 28 24 23 26 31 39 44 44 43 40 38 36 34 32 32 30 28 29 30 29 30 28 25 27 27 26 28 23 19 22 19 8 8 12 21 31 31 24 24 26 23 22 28 31 31 32 35 30 23 25 28 26 23 16 13 12 15 33 43 34 41 65 67 63
168 168 163 158 155 147 136 128 124 126 123 106 86 67 56 57 58 56 51 42 35 31 25 25 27 30 38 45 46 45 41 39 37 34 34 40 43 31 26 31 31 31 32 27 25 25 23 25 23 19 21 20 8 2 5 11 21 28 26 29 37 42 38 33 32 30 30 35 32 26 25 20 15 14 8 4 4 358 8 38 32 24 51 61 59
169 169 165 161 159 153 143 136 131 132 132 122 105 85 72 72 67 62 56 44 37 39 34 28 28 30 38 46 49 47 41 38 38 34 32 42 51 39 27 31 32 30 33 30 27 26 24 24 27 23 21 22 14 1 359 4 11 19 23 29 40 49 52 45 37 33 33 36 35 29 21 9 5 7 0 353 353 345 347 23 39 21 38 52 51
170 171 168 165 162 157 150 142 136 137 138 128 116 105 91 83 73 67 63 51 47 53 45 33 31 33 40 48 49 45 39 36 36 34 33 42 52 45 31 33 36 33 34 33 29 28 25 23 27 25 18 18 16 9 5 2 6 19 28 31 36 43 47 43 36 33 33 34 34 28 17 5 1 1 353 342 338 339 344 16 43 30 42 56 49
172 172 170 168 165 160 156 148 141 143 143 135 129 119 103 93 84 76 71 62 58 60 51 40 36 33 37 47 48 43 38 36 34 32 33 42 49 45 34 34 39 37 36 36 32 27 25 22 24 24 17 14 16 17 12 0 1 18 28 33 35 37 40 40 33 30 29 29 31 28 21 15 6 358 353 342 332 337 349 12 34 41 63 75 57
173 173 172 171 168 164 161 152 145 148 148 143 138 127 114 106 95 83 75 67 60 58 53 46 41 34 31 40 49 44 37 34 33 29 31 41 46 41 35 36 41 42 41 41 38 31 27 24 22 22 19 15 17 19 16 1 357 13 21 24 33 37 36 34 31 33 34 33 34 33 28 27 19 9 6 357 343 338 346 5 24 31 78 95 74
174 174 174 174 171 168 165 156 151 154 152 148 144 135 127 118 104 93 84 71 60 58 56 48 42 35 30 35 48 46 35 31 30 26 30 43 45 37 37 40 41 44 42 43 44 38 33 30 26 21 17 17 19 22 23 14 4 11 20 17 26 35 27 18 17 27 38 40 41 40 36 31 24 16 14 15 8 357 352 28 43 9 26 72 72
176 175 176 176 174 171 168 161 157 157 156 153 149 141 137 130 118 110 99 83 72 65 60 52 43 36 32 33 40 42 33 29 28 25 30 45 41 26 33 42 40 43 44 43 47 41 33 31 32 26 18 19 21 22 26 28 18 16 20 18 23 33 26 12 3 7 20 28 31 36 37 33 25 17 17 25 28 21 21 34 20 8 24 68 72
178 176 176 177 175 172 171 166 161 161 160 153 149 148 147 141 132 127 114 98 88 76 66 62 55 46 40 39 40 42 33 27 27 25 30 45 42 20 27 44 38 37 43 42 46 40 26 25 30 31 24 20 21 22 27 31 24 16 16 22 30 31 22 13 6 1 5 16 25 33 38 36 29 22 21 27 34 34 33 27 11 6 24 53 59
179 177 176 176 175 172 172 169 164 164 161 152 149 152 151 146 142 137 129 122 120 105 81 78 70 56 49 43 39 41 34 25 26 28 32 47 51 30 24 41 39 33 36 39 44 46 28 19 23 27 26 22 21 22 27 31 28 18 15 19 25 22 12 4 3 2 5 18 29 37 41 40 35 29 25 26 32 36 36 30 19 14 18 27 39
179 176 173 173 175 173 172 171 167 166 161 154 152 154 152 149 146 144 143 138 134 122 94 88 85 64 51 43 36 37 35 24 25 30 36 47 56 44 27 28 33 30 32 34 37 42 39 25 19 22 24 22 21 21 25 31 32 25 22 23 16 11 7 359 358 1 6 20 28 33 41 42 39 35 31 28 31 35 35 33 31 26 22 28 38
176 173 171 172 175 174 172 171 169 167 163 157 154 154 155 153 149 151 154 144 134 134 125 114 108 83 60 57 49 44 41 30 26 32 39 44 54 53 37 27 27 23 26 37 36 33 36 29 17 18 21 22 22 23 24 30 35 31 26 24 17 13 11 0 357 5 14 24 30 33 39 42 39 38 36 32 31 32 33 34 35 33 35 39 41
173 171 171 173 174 175 173 170 169 167 164 161 158 157 157 156 154 156 156 150 148 153 155 143 124 106 81 74 68 50 40 35 31 36 42 44 50 53 46 42 41 28 22 33 34 28 31 26 16 18 22 23 26 27 26 31 37 35 29 26 25 27 23 7 4 18 23 25 33 36 35 37 39 40 37 34 32 29 29 31 32 35 43 49 49
172 170 172 173 175 176 174 172 171 169 166 164 163 161 160 159 159 160 158 160 162 163 164 163 140 123 108 90 83 68 45 34 32 38 44 44 47 51 50 52 57 47 31 32 33 28 28 23 17 21 26 31 37 37 34 37 40 39 40 41 36 32 28 17 17 24 25 29 39 39 33 32 37 39 36 33 33 31 29 28 28 35 45 48 49
169 171 172 173 175 177 176 175 174 170 167 167 166 165 165 165 162 163 167 170 168 166 164 165 156 135 121 105 88 78 66 36 30 39 48 48 48 51 48 50 58 59 45 34 32 31 30 29 29 31 33 40 44 40 35 40 44 44 46 44 35 25 22 22 25 26 27 33 38 36 30 29 34 36 33 33 37 38 36 32 30 41 50 49 47
170 173 173 173 175 177 177 178 177 172 169 170 170 169 169 170 167 165 170 174 173 168 161 156 151 136 119 112 100 76 69 54 29 32 39 41 42 46 48 50 55 59 54 44 43 43 43 44 45 44 43 45 44 36 30 35 39 40 40 40 33 25 22 21 23 26 29 31 31 29 27 28 32 34 32 35 41 43 39 33 33 47 58 58 52
172 174 174 174 176 177 178 178 178 175 172 173 172 172 173 173 170 168 169 171 168 164 160 154 145 133 120 112 107 86 66 65 39 18 17 18 20 27 34 36 39 42 41 37 38 43 47 50 49 44 41 42 42 38 32 31 32 32 33 34 32 28 25 20 18 21 23 23 23 21 21 25 30 33 36 39 41 42 40 32 29 39 52 60 58
173 174 175 174 175 178 179 178 177 175 174 175 174 174 175 174 172 171 171 170 168 163 159 155 143 133 129 120 112 106 86 64 44 20 8 2 4 15 21 21 24 31 33 30 32 37 39 38 37 33 30 31 35 37 35 33 33 31 30 31 32 30 25 22 21 19 15 13 13 12 14 22 29 34 39 41 39 40 44 44 39 39 45 55 60
174 176 176 174 175 178 179 178 177 175 176 176 174 174 176 177 177 176 171 162 162 163 158 154 147 136 132 130 129 127 103 70 50 36 28 28 29 28 26 23 23 29 48 58 46 32 27 29 30 31 30 31 34 37 35 36 38 36 32 30 30 29 26 26 26 22 13 8 7 6 10 21 30 33 37 41 39 38 42 53 56 49 46 54 56
174 176 176 174 176 177 177 178 179 177 176 175 172 170 173 176 173 169 171 174 165 154 141 132 132 133 127 121 117 109 102 92 80 71 65 64 65 64 62 61 57 61 76 76 59 33 35 41 38 36 35 35 36 36 34 34 36 37 34 30 28 27 26 26 25 19 11 7 8 8 8 15 24 29 34 40 41 38 40 52 59 52 48 53 52
175 178 178 177 177 176 176 179 181 180 176 173 170 168 172 176 169 157 167 184 179 164 151 138 132 128 116 112 121 118 116 118 108 88 79 76 77 78 79 79 83 85 78 67 54 45 47 46 41 38 37 35 34 33 31 31 31 32 33 31 28 27 26 25 23 17 10 9 10 10 10 13 18 23 29 35 41 41 44 54 62 60 53 50 47
177 181 180 179 177 176 177 179 180 181 179 175 172 167 170 179 182 176 177 184 181 174 169 160 151 140 126 123 136 136 125 118 106 91 85 83 81 81 80 79 84 87 79 65 54 51 51 47 42 40 38 36 34 32 30 30 30 28 30 31 29 27 25 22 20 16 13 12 12 13 15 16 17 20 23 29 38 43 46 53 64 69 65 55 48
180 182 181 178 175 176 177 178 179 181 179 177 176 172 170 176 183 188 191 192 189 183 171 159 153 148 138 132 135 136 127 115 103 93 88 86 82 80 81 84 87 82 72 64 59 54 50 48 44 39 36 35 35 32 30 31 30 28 28 29 27 25 23 18 16 16 17 15 13 13 16 15 14 18 24 29 38 45 46 48 58 70 74 66 56
180 180 178 174 174 177 179 177 178 181 179 178 178 178 177 177 174 174 181 188 190 187 172 159 151 147 146 143 141 139 129 114 105 98 93 88 85 82 82 84 86 79 66 60 61 57 52 49 46 41 37 35 34 32 31 31 29 28 29 28 25 23 20 15 15 18 19 17 15 13 13 14 15 23 34 40 42 44 44 44 49 61 70 67 60
181 180 178 174 173 177 180 178 178 180 179 179 179 179 181 182 175 166 167 171 176 176 171 165 158 150 147 145 143 138 128 116 109 104 99 96 93 88 80 72 70 70 65 62 61 57 53 51 46 42 39 36 34 34 33 31 29 28 28 27 25 23 19 16 17 18 18 20 18 13 12 15 18 27 42 48 44 42 41 40 41 48 57 61 62
184 184 182 178 175 177 180 180 179 178 178 179 180 180 180 179 175 170 170 171 171 169 167 167 166 161 154 149 146 140 130 121 114 107 107 107 100 89 76 63 63 64 62 62 61 57 54 51 47 42 40 38 37 36 34 33 31 28 27 26 26 24 22 19 17 15 17 22 21 14 12 15 17 25 41 48 45 42 39 36 36 38 45 52 56
184 183 183 182 178 177 179 179 179 179 178 177 178 179 179 177 175 173 173 172 169 166 162 161 165 165 159 155 152 145 135 127 119 115 119 115 100 78 60 76 81 73 67 66 64 60 56 52 47 44 41 37 37 37 35 34 32 29 28 27 26 25 22 19 16 14 16 22 21 17 17 17 17 22 34 44 47 45 39 37 39 38 37 42 50
186 181 180 181 180 177 177 178 179 178 175 174 176 177 177 177 176 174 172 170 168 166 161 157 158 163 164 166 165 156 145 135 124 121 122 111 93 76 69 86 86 80 76 72 67 63 61 55 48 46 43 39 39 39 37 35 34 30 28 29 29 26 22 19 17 16 18 21 22 20 19 19 19 21 27 37 46 46 40 42 49 47 41 41 51
189 185 182 182 179 175 175 175 176 175 172 172 176 177 176 178 177 174 172 169 168 168 165 161 163 166 167 170 173 167 152 142 134 132 128 112 96 95 103 97 91 89 85 79 73 70 66 59 51 48 45 41 40 40 39 38 35 30 28 30 31 28 24 22 23 22 21 22 22 21 20 20 21 21 26 34 42 44 42 41 45 49 49 49 55
190 189 188 186 181 177 175 172 171 172 171 173 176 177 177 177 176 173 171 169 170 173 171 167 170 172 168 166 169 169 163 161 163 163 158 140 123 122 118 106 99 97 92 87 83 79 73 67 59 53 48 45 43 42 41 39 35 33 31 30 30 29 27 26 25 24 23 22 21 22 22 21 20 23 29 33 35 38 42 42 39 45 54 59 61
190 189 189 186 181 177 175 172 170 172 174 175 176 176 177 177 176 173 170 169 173 177 174 172 174 173 166 165 168 169 170 175 174 167 158 146 135 129 123 116 110 104 99 96 92 86 81 75 67 59 53 50 45 44 43 39 36 36 34 31 31 31 30 29 26 23 23 22 21 22 23 19 19 25 29 29 30 33 37 42 44 47 55 63 66
185 185 186 186 182 178 174 173 174 174 174 174 175 177 177 175 171 169 168 171 177 177 175 176 175 169 169 173 170 165 168 175 168 160 155 148 141 137 130 122 117 110 106 104 99 94 89 82 73 66 60 54 48 47 46 43 39 39 36 34 33 32 31 31 28 24 24 24 23 23 22 18 20 24 25 26 33 37 37 43 51 54 56 62 66
180 183 186 186 183 179 175 174 175 174 172 173 176 178 175 169 166 168 171 175 177 175 173 174 168 165 174 178 169 158 162 174 165 158 156 148 141 139 134 127 122 116 113 110 105 102 98 90 81 73 66 58 52 49 48 45 43 43 40 37 34 32 32 32 29 26 26 26 23 23 22 20 22 26 27 30 39 43 40 43 51 58 61 62 62
180 183 184 184 183 181 177 175 174 174 174 174 174 173 170 165 163 168 174 175 174 172 172 168 161 164 175 176 165 155 162 171 163 159 157 150 145 144 140 133 126 121 118 115 112 109 105 98 91 84 75 68 61 56 52 48 44 45 45 42 37 34 33 32 29 27 26 25 22 21 22 24 28 29 28 31 39 43 42 44 48 55 63 65 61
181 181 182 182 183 184 182 177 174 174 173 172 171 169 168 165 164 167 172 175 175 173 169 161 157 162 168 170 167 166 170 168 165 163 157 150 148 147 143 138 132 127 124 121 118 115 112 108 103 96 86 78 71 64 60 55 48 47 47 45 42 38 34 30 27 25 23 23 24 24 24 27 33 34 30 32 38 43 45 46 45 47 52 58 59
179 178 180 179 180 182 182 178 174 171 169 168 168 167 169 174 176 175 175 177 177 172 165 159 159 162 165 167 172 176 173 167 165 163 157 154 153 150 145 141 137 133 131 129 125 122 119 116 112 105 96 87 78 72 69 64 58 53 51 50 48 42 35 30 27 25 24 24 26 29 30 31 36 40 38 36 40 44 47 48 47 48 51 55 57
180 178 179 178 177 179 180 178 174 171 167 167 166 165 167 175 178 175 172 175 175 169 164 164 165 166 168 170 174 176 172 168 165 162 159 157 154 150 147 144 140 137 136 135 132 129 125 122 119 112 105 98 89 81 74 67 60 55 53 48 44 40 37 33 28 29 32 31 29 31 36 38 41 45 46 45 45 46 48 50 49 50 54 56 55
182 180 180 178 175 177 179 179 177 173 169 166 164 163 167 173 176 174 175 178 175 168 166 168 170 171 171 171 173 174 171 168 166 162 159 157 154 151 149 147 143 141 141 139 136 133 130 127 124 119 114 108 98 88 80 70 61 57 54 51 51 60 66 56 37 30 37 37 34 35 41 43 44 46 47 48 49 49 50 51 50 49 51 55 55
183 180 180 179 174 173 176 178 178 174 169 164 164 167 171 174 175 176 177 177 173 169 168 169 172 174 174 173 173 173 170 168 165 162 158 156 154 152 151 149 146 145 143 140 138 136 133 131 128 124 119 113 101 91 85 78 69 62 63 68 77 85 87 81 67 55 49 41 36 40 47 50 51 51 49 49 52 52 52 54 53 50 49 51 53
183 180 180 180 175 173 175 176 175 171 167 164 166 170 172 171 170 172 176 175 171 170 170 171 173 175 174 173 173 172 169 167 165 162 159 157 155 153 152 151 149 147 145 144 143 141 138 136 133 127 121 115 108 99 92 85 77 73 79 87 88 88 90 91 85 75 64 49 42 47 52 53 56 56 54 54 56 56 55 55 55 54 54 53 52
183 181 182 181 178 176 177 176 173 171 167 163 163 167 169 169 168 170 172 170 168 169 170 171 173 173 173 172 172 171 169 167 165 162 160 157 155 155 155 154 151 148 147 146 145 143 141 139 136 131 127 122 114 104 95 91 92 97 103 103 97 90 89 90 90 86 78 64 53 54 56 57 60 61 60 60 61 59 57 57 57 58 59 57 53
183 181 181 181 178 177 176 174 174 173 169 164 164 168 169 168 168 170 169 166 166 167 167 168 171 172 172 173 171 169 168 168 165 163 160 158 156 157 158 157 154 151 149 148 147 145 144 143 140 136 132 126 116 109 109 113 120 122 115 105 100 96 91 90 92 92 86 75 62 58 59 61 63 64 64 64 63 61 59 59 60 62 64 63 60
Height
823 824 824 825 825 825 825 824 824 824 823 823 823 822 822 821 821 820 819 818 817 816 815 814 813 812 811 810 809 808 807 805 804 802 801 800 799 797 796 794 793 791 789 788 786 784 782 780 778 776 773 771 769 766 764 763 761 759 758 757 755 754 752 750 750 751 753 752 752 752 750 749 749 748 748 748 748 748 747 747 747 746 746 746 745
823 824 824 825 825 825 825 825 824 824 824 824 823 823 822 822 821 821 820 819 818 817 816 815 814 813 812 811 810 809 808 806 805 804 802 801 800 799 797 796 794 792 791 789 788 786 784 782 780 778 776 773 771 769 767 765 763 761 759 758 756 755 754 753 751 750 751 753 753 752 752 751 751 751 750 749 750 750 749 749 749 749 749 749 748
823 824 824 825 825 825 825 825 825 825 824 824 824 823 823 823 822 822 821 820 819 818 817 816 815 814 813 812 811 810 809 807 806 805 803 802 801 800 798 797 796 794 792 791 789 788 786 784 783 780 778 776 773 771 769 767 765 763 761 759 758 756 755 754 753 751 752 753 753 753 752 753 753 753 752 752 752 751 750 750 750 750 750 750 750
823 824 824 825 825 825 825 825 825 825 825 825 824 824 824 823 823 822 822 821 820 819 818 817 816 815 814 813 812 811 810 808 807 806 805 803 802 801 799 798 797 795 794 792 791 789 788 786 785 783 781 778 776 774 772 769 767 765 763 761 759 758 756 755 754 753 753 755 755 754 754 754 754 754 754 753 753 752 752 751 751 752 752 752 752
823 823 824 825 825 825 825 825 825 825 825 825 825 824 824 824 823 823 823 822 821 820 819 818 818 816 815 814 813 812 811 810 808 807 806 804 803 802 800 799 798 796 795 793 792 791 790 788 787 785 783 781 779 777 774 772 769 767 766 763 761 759 758 757 756 755 754 755 756 755 755 755 755 755 755 753 753 753 752 752 753 753 753 753 753
822 823 824 825 825 825 825 826 826 826 826 825 825 825 825 824 824 824 823 823 822 821 821 820 819 818 817 815 814 813 812 811 809 808 807 805 804 803 801 800 798 797 796 795 794 792 791 790 788 787 786 784 782 780 778 775 772 770 768 765 763 761 759 759 757 756 755 755 755 755 755 755 755 755 754 753 753 752 752 753 754 754 754 754 754
822 823 824 824 825 825 825 826 826 826 826 826 826 825 825 825 825 824 824 824 823 822 822 821 820 819 818 817 816 815 813 812 810 809 808 806 805 804 802 801 799 798 797 796 795 794 793 792 790 789 788 786 785 783 780 778 775 772 770 767 765 763 761 760 759 757 756 756 755 755 755 756 755 755 754 754 753 753 753 753 753 754 755 755 755
822 823 824 824 825 825 826 826 826 826 826 826 826 826 826 826 825 825 825 824 824 823 823 822 821 820 819 818 817 816 815 813 811 809 808 807 806 805 803 802 800 799 798 797 796 795 794 793 792 791 789 788 786 785 783 781 778 776 773 770 767 765 763 762 761 760 759 758 757 757 757 757 756 756 755 755 754 754 754 754 753 754 755 756 756
821 822 823 824 825 825 826 826 826 826 826 826 827 826 826 826 826 826 825 825 825 824 824 823 822 821 820 819 818 817 816 814 812 811 809 808 807 806 804 803 802 801 799 798 797 796 795 794 793 792 791 789 788 786 785 783 781 779 776 773 770 767 765 764 763 762 761 760 760 759 758 758 758 758 757 756 756 756 755 756 756 755 755 756 757
820 821 823 824 825 825 826 826 826 826 827 827 827 827 827 826 826 826 826 826 826 825 825 824 823 823 822 821 820 819 817 816 814 813 811 809 808 807 806 804 803 802 801 799 798 797 796 796 795 794 792 791 789 788 786 784 783 781 779 776 773 771 768 767 766 765 763 762 762 762 761 760 760 760 759 758 758 757 756 757 757 756 755 756 757
819 820 822 823 824 825 825 826 826 827 827 827 827 827 827 827 827 827 826 826 826 826 826 825 825 824 823 822 821 820 819 817 815 814 812 810 809 808 807 806 804 803 802 801 800 799 798 797 796 795 793 792 790 789 787 786 784 783 781 779 776 774 772 771 770 768 767 766 765 765 764 763 762 762 761 760 760 759 758 757 757 756 755 756 757
818 820 821 822 823 824 825 825 826 827 827 827 827 827 827 827 827 827 827 827 827 827 827 826 826 825 824 823 823 822 820 818 817 815 813 811 809 809 808 807 806 805 804 802 802 800 799 798 797 797 795 793 792 790 788 787 786 784 783 781 779 777 776 775 774 772 771 770 769 768 767 766 765 764 764 762 762 761 759 758 758 757 757 758 758
817 819 820 821 822 823 825 825 826 827 827 827 828 828 828 828 828 828 828 828 828 828 827 827 827 826 826 825 824 823 821 819 818 816 814 812 811 810 810 809 807 807 805 804 803 802 801 800 799 798 797 795 793 791 790 788 787 785 784 783 781 780 779 778 777 776 774 773 772 771 771 770 768 767 766 765 764 763 761 760 759 759 759 760 760
816 817 819 820 821 823 824 825 825 827 827 828 828 828 828 828 828 828 828 828 828 828 828 828 828 827 826 826 825 824 822 820 819 817 815 814 812 811 811 810 809 808 807 806 805 804 803 802 800 799 798 796 794 792 790 789 788 786 785 784 783 782 780 780 779 778 777 776 775 774 774 773 771 770 768 766 764 763 762 761 761 761 761 761 762
814 816 818 819 821 822 823 824 825 826 827 828 828 828 829 829 829 829 829 829 829 829 829 829 828 828 827 827 826 825 823 822 820 818 816 815 813 812 812 811 810 810 809 808 807 805 804 803 802 801 800 798 795 793 791 790 788 787 786 785 785 783 782 782 781 780 779 778 777 777 776 774 773 771 769 767 765 764 763 762 762 762 762 762 762
813 814 816 818 819 821 822 824 825 826 827 828 828 829 829 829 829 830 829 830 830 830 830 830 829 829 828 828 827 826 824 823 821 819 817 815 814 813 813 812 811 811 810 809 808 807 805 804 803 802 801 799 796 794 792 791 789 789 788 787 786 785 783 783 782 782 781 780 779 778 777 775 774 772 770 768 766 764 763 763 763 763 763 763 763
811 812 815 817 818 820 821 823 824 825 827 827 828 829 829 829 830 830 830 830 831 830 830 830 830 830 829 828 828 827 826 824 822 820 818 816 815 814 814 813 812 812 811 810 810 808 806 805 804 803 802 799 797 795 794 792 791 790 789 788 787 786 785 785 784 783 782 781 780 779 778 776 775 773 771 769 767 765 764 764 764 764 764 764 764
808 810 813 815 817 819 820 822 823 825 826 827 828 829 829 829 829 830 830 831 831 831 831 831 831 830 830 829 828 828 827 825 823 821 819 817 816 815 815 814 813 813 812 811 811 809 808 806 805 803 802 800 799 797 795 793 793 792 791 789 788 787 787 786 785 784 783 782 781 780 779 778 777 775 773 770 768 767 767 767 766 765 765 765 765
807 809 811 813 815 817 819 821 823 824 825 826 828 829 829 829 829 830 830 831 831 831 831 831 831 831 830 830 829 829 828 826 824 823 821 819 817 816 816 815 814 813 812 812 811 810 809 808 806 804 803 801 800 798 796 795 794 793 792 791 790 789 789 788 787 786 785 783 782 781 781 780 779 777 776 773 771 769 769 769 769 768 767 766 766
806 808 810 812 814 816 818 820 822 823 825 826 827 828 829 829 829 830 830 830 831 831 831 831 831 831 831 831 830 830 829 828 826 824 822 820 818 817 817 816 815 814 813 812 812 811 810 809 807 805 804 802 801 799 798 796 795 794 794 793 792 791 790 789 788 787 786 784 783 782 782 781 780 779 778 776 774 773 772 771 771 771 770 769 768
805 807 809 811 813 815 817 819 821 822 824 825 826 828 829 829 830 830 830 830 830 831 831 831 831 831 831 831 831 830 830 828 827 825 823 822 820 818 818 817 816 815 814 813 813 812 811 810 809 806 805 803 802 800 799 797 796 795 794 793 793 792 791 790 789 788 787 785 784 782 782 782 781 780 779 779 778 776 775 774 773 773 772 772 772
803 805 807 810 812 814 816 818 820 821 823 824 826 827 828 829 829 829 830 830 830 831 831 831 831 831 831 831 831 831 830 829 828 826 824 823 821 820 819 818 817 816 816 815 814 813 812 812 810 808 806 805 803 802 800 799 797 796 795 794 794 793 792 791 790 789 788 787 785 784 783 783 783 782 782 781 781 779 778 777 776 775 775 774 775
802 804 806 809 811 813 815 817 818 820 822 823 825 826 827 828 829 829 830 830 830 830 831 831 831 831 831 831 831 831 831 829 828 827 825 824 823 821 820 819 817 817 817 816 815 815 814 812 811 809 807 806 805 803 802 800 799 798 797 796 795 794 793 792 792 790 789 788 787 786 786 785 784 784 784 783 783 782 781 780 779 778 777 776 776
800 803 805 807 810 812 814 816 817 819 820 822 824 825 827 828 828 829 829 829 830 830 830 830 830 830 831 831 831 831 831 830 829 828 826 825 824 822 821 820 818 818 818 817 817 816 814 813 812 810 809 808 806 805 804 803 801 800 798 797 796 795 794 794 793 792 791 790 789 788 788 787 787 786 786 785 785 784 783 782 781 780 779 779 778
798 801 803 806 808 811 813 815 817 818 819 821 823 824 826 827 828 828 829 829 829 829 829 829 830 830 830 831 831 831 831 831 830 829 827 826 825 823 822 821 820 819 819 818 817 816 815 813 812 811 810 809 808 807 806 805 803 801 800 799 798 797 797 796 794 793 792 792 791 791 790 789 789 788 787 786 786 786 785 784 783 783 782 781 781
795 799 801 804 807 809 811 813 815 817 818 820 821 823 825 826 827 827 828 828 828 828 828 829 829 830 830 831 831 832 831 831 831 830 828 827 826 825 823 822 821 820 819 818 817 816 815 814 813 813 812 810 809 809 808 807 805 803 802 801 800 800 799 798 797 796 795 794 793 793 792 791 790 789 788 787 787 787 786 785 785 784 783 783 783
793 796 799 801 805 807 810 812 814 815 817 818 820 821 823 824 826 826 827 827 828 828 828 828 829 829 830 831 831 831 831 831 831 830 829 828 827 826 825 824 823 821 821 820 819 818 817 816 815 814 813 811 810 810 809 808 807 806 805 804 803 802 801 800 799 798 797 797 796 795 794 793 791 790 788 788 788 788 787 786 786 785 785 785 785
790 794 796 799 802 805 808 810 812 813 815 817 818 820 822 823 824 825 826 826 827 827 828 828 829 829 830 831 831 831 831 832 831 831 830 829 828 827 826 825 824 823 822 821 820 820 819 817 816 815 814 813 812 811 810 809 808 808 807 806 805 804 803 802 801 800 800 799 798 797 796 794 792 791 790 789 789 789 788 788 788 788 787 787 787
788 792 794 797 800 802 805 808 810 812 813 815 817 818 819 821 823 824 825 825 826 826 827 828 829 829 830 830 830 831 831 832 832 831 830 829 828 828 827 826 825 824 823 822 821 821 820 818 817 816 815 814 813 812 812 811 810 809 809 808 807 806 805 804 803 802 801 801 799 798 797 796 794 793 792 790 790 790 790 789 789 790 789 789 789
787 789 791 794 796 799 802 805 808 810 811 813 815 816 818 820 821 822 824 825 825 826 827 827 828 829 830 830 831 831 832 832 832 831 831 830 829 828 827 826 825 825 824 822 822 822 821 820 819 818 817 816 815 814 814 813 812 811 810 810 809 808 807 806 806 805 804 803 801 800 799 797 796 795 794 793 792 791 791 790 791 791 791 791 791
783 786 788 790 793 796 799 802 805 807 809 810 812 814 817 819 820 822 823 824 825 826 827 827 828 829 830 831 831 831 832 832 832 832 831 831 830 829 828 827 826 826 825 824 823 823 822 821 821 820 820 819 818 817 816 815 814 813 812 812 811 810 810 809 808 807 806 804 803 802 801 799 798 797 796 795 793 792 792 791 792 792 793 793 793
777 780 784 787 789 793 796 798 801 804 806 808 810 812 815 817 819 821 823 824 825 826 827 828 829 829 830 831 831 832 833 832 832 832 832 831 831 830 829 829 828 827 826 825 825 825 824 823 823 823 822 821 820 820 819 817 816 816 815 814 813 813 812 811 810 809 808 806 805 804 803 802 800 799 798 797 795 795 794 793 792 793 794 795 795
772 775 779 782 786 790 792 795 798 801 803 805 807 809 812 814 817 820 822 824 825 826 827 828 829 829 830 831 831 832 833 832 833 833 832 832 832 831 831 830 829 828 827 827 827 827 826 826 826 825 825 824 823 822 821 820 819 818 817 816 815 815 814 813 812 811 810 808 807 806 805 804 802 801 799 798 797 797 796 795 794 794 794 796 797
768 771 774 777 781 785 788 791 794 797 799 802 804 806 809 811 813 817 820 822 824 826 827 828 829 829 830 831 831 832 833 833 833 833 833 832 832 832 832 832 831 830 829 829 829 828 828 828 828 827 827 826 825 824 823 822 821 820 819 818 817 817 816 815 813 812 811 810 809 808 807 806 804 803 801 799 799 799 799 798 797 796 795 796 797
765 767 769 772 776 780 783 787 790 793 796 799 801 804 806 809 811 814 817 819 822 824 826 827 828 829 830 830 831 832 833 833 833 833 833 833 833 833 832 832 832 832 831 831 831 830 830 830 830 830 829 828 827 826 825 824 824 823 821 821 820 819 818 816 815 814 813 812 811 810 808 807 807 805 804 802 802 802 801 801 800 800 798 798 797
762 764 767 770 772 775 779 782 786 789 792 795 798 801 804 806 809 812 814 817 820 822 824 826 827 829 830 830 831 832 832 833 833 833 833 833 833 833 833 833 833 833 832 832 833 832 832 832 832 832 831 830 829 828 827 827 826 825 824 823 822 821 820 819 817 816 815 814 813 812 810 809 808 807 806 805 805 804 804 803 803 802 802 801 799
757 759 762 765 769 772 775 779 782 785 788 792 795 798 801 804 807 809 812 815 818 820 822 824 826 828 829 830 831 831 832 833 833 833 834 834 833 833 834 834 834 833 833 834 834 834 834 834 834 833 833 832 831 830 829 828 828 827 826 825 824 823 822 821 819 818 817 815 814 813 812 812 811 810 809 808 807 807 807 806 805 805 805 804 801
753 754 756 761 765 768 771 775 778 782 785 789 792 795 798 801 804 807 810 813 815 818 819 821 823 825 827 828 830 831 832 832 833 834 834 834 834 834 835 835 834 834 834 835 835 835 836 836 835 835 835 834 833 832 831 830 830 829 828 827 826 825 824 823 821 820 819 817 816 815 815 814 813 812 811 810 809 809 809 808 808 807 807 806 804
749 750 753 757 762 765 768 771 775 778 782 785 789 792 795 798 802 805 807 810 813 815 817 819 821 823 824 826 828 830 831 832 833 833 834 834 834 835 835 835 835 835 835 836 836 837 837 837 837 836 836 835 835 834 833 832 831 831 830 829 828 827 826 825 823 822 821 820 819 818 817 816 815 814 813 812 812 811 811 811 810 810 810 809 808
745 748 751 755 759 763 766 768 771 774 777 781 785 788 792 795 798 801 804 807 810 812 814 816 818 820 822 824 825 827 829 830 831 832 833 833 834 835 835 835 836 836 836 837 837 837 838 838 838 838 837 837 836 835 835 834 833 832 832 831 830 829 828 827 826 824 823 822 821 820 819 818 817 816 816 815 814 814 813 813 812 812 812 813 811
741 745 748 752 756 759 762 765 768 770 774 777 781 785 788 792 795 798 802 805 807 810 812 814 816 818 819 821 823 825 827 829 830 831 832 833 834 835 835 836 836 836 837 837 838 838 839 839 839 839 839 838 838 837 836 836 835 834 834 833 832 831 830 829 828 827 826 825 823 822 821 820 819 819 818 817 816 816 815 815 815 814 814 815 814
735 739 743 747 751 754 757 760 763 766 770 774 777 781 785 788 792 796 799 802 805 807 810 812 815 816 818 820 822 824 826 828 829 831 831 832 833 834 835 836 836 836 837 838 838 839 839 840 840 840 840 839 839 838 838 837 837 836 835 835 834 833 832 831 830 829 828 827 826 824 823 822 821 821 820 819 819 818 817 817 817 816 816 816 816
731 734 738 742 746 749 752 756 759 763 766 769 773 778 781 785 790 794 798 801 803 805 808 810 812 814 817 820 822 824 825 827 829 830 831 832 833 834 835 836 836 836 837 838 839 839 840 840 841 841 841 840 840 839 839 839 838 838 837 837 836 835 834 833 832 831 830 829 828 827 825 824 824 823 822 821 821 820 819 819 819 818 818 818 818
727 731 735 739 743 747 750 753 756 759 761 765 770 774 778 783 787 791 796 800 802 803 806 808 810 813 816 819 821 823 824 826 828 829 830 831 832 834 835 835 836 836 837 838 839 840 840 841 841 841 841 841 841 840 840 840 840 839 839 838 838 837 836 835 834 833 832 831 830 829 828 826 825 825 824 823 823 822 822 821 821 821 820 820 820
723 726 730 734 739 743 747 750 753 756 758 762 766 771 775 780 784 788 793 797 800 802 804 806 809 812 815 817 819 821 823 825 826 828 829 830 832 833 834 835 835 836 837 838 839 840 841 841 842 842 842 842 842 842 841 841 841 841 840 840 839 839 838 837 836 835 834 833 832 831 830 829 827 827 826 826 825 825 824 824 824 823 823 823 823
718 722 725 728 733 738 743 747 751 753 756 759 762 767 772 777 781 786 790 794 797 800 802 805 808 811 813 815 818 820 821 823 825 827 828 830 831 832 833 834 835 836 837 837 838 839 840 842 842 843 843 843 843 843 843 843 843 842 842 841 841 840 839 839 838 837 836 835 834 833 832 831 830 829 828 828 828 827 827 826 826 826 826 826 826
713 717 720 724 727 732 738 743 747 749 753 756 759 763 767 772 778 783 788 791 794 797 800 803 806 809 811 813 816 818 820 822 824 826 827 829 830 832 833 833 834 835 836 837 838 839 840 842 842 843 843 844 844 844 844 844 844 844 843 842 842 841 840 839 839 839 838 837 836 835 834 833 832 831 830 830 830 829 829 829 828 828 828 828 828
709 712 716 721 725 729 733 738 742 745 749 753 756 760 764 769 775 780 784 788 791 795 798 801 804 806 809 811 813 816 818 820 822 824 826 828 829 831 832 833 834 835 836 837 838 839 840 841 842 843 844 844 844 845 845 846 846 845 845 843 842 841 840 840 840 840 839 838 838 837 836 835 835 833 833 832 832 832 831 831 831 831 830 830 830
704 707 711 716 720 724 727 732 737 741 745 749 753 757 762 767 772 777 781 785 788 792 795 799 801 804 806 809 811 814 816 819 821 823 825 827 828 830 831 832 833 834 835 836 838 839 840 841 842 843 844 845 845 845 846 846 847 847 846 845 843 842 842 841 841 840 840 840 840 839 838 838 837 836 835 835 834 834 833 833 833 833 833 833 832
700 703 707 711 715 719 723 728 734 738 741 744 749 755 759 763 769 774 778 782 785 789 793 796 799 801 804 807 809 812 814 817 819 821 823 825 827 829 831 832 833 834 835 836 837 839 840 841 842 843 844 845 845 846 847 847 847 847 846 845 845 844 843 843 842 841 841 842 842 841 840 839 839 838 838 838 837 836 835 835 835 835 835 835 835
697 700 704 709 713 717 722 726 731 736 739 742 746 751 756 760 766 770 774 778 782 786 790 793 797 799 802 805 807 810 812 815 817 819 822 824 826 828 830 831 833 834 835 836 837 838 840 841 842 843 844 845 846 846 847 847 847 847 847 846 846 845 845 844 844 843 843 843 844 844 843 842 841 840 840 840 840 839 838 838 837 838 838 837 837